[[{"header":{"parameterUnit":"m.s-1","parameterCategory":1,"la1":30.2991,"la2":30.254,"lo1":-89.0895,"lo2":-89.0444,"dy":0.0017,"dx":0.0017,"nx":28,"ny":28,"refTime":"2025-12-25T09:00:00:Z","depth":0,"parameterNumber":2,"parameterNumberName":"U-component_of_WINDS"},"data":[0,0,0,0,0,0,0,0,0,0,0,0,0,0,0,0,0,0,0,0,0,0,0,0,0,0,0,0,0,0,0,0,0,0,0,0,0,0,0,0,0,0,0,0,0,0,0,0,0,0,0,0,0,0,0,0,0,0,1.2951,1.2952,0,1.3043,1.3044,1.3045,1.3053,1.3052,1.3051,1.305,1.3148,1.3152,1.3155,0,0,0,0,0,0,0,0,0,0,0,0,0,1.2788,1.2791,1.2951,1.2952,1.2954,1.3043,1.3044,1.3045,1.3054,1.3052,1.3051,1.305,1.3147,1.3151,1.3156,0,0,0,0,0,0,0,0,0,0,0,0,0,1.2867,1.2792,1.2951,1.2968,1.2971,1.3043,1.3044,1.3046,1.3054,1.3052,1.3051,1.3049,1.3146,1.3151,1.3156,1.3218,0,0,1.3172,1.3175,0,0,0,0,0,0,0,0,1.2863,1.2873,1.2965,1.2967,1.297,1.3035,1.3023,1.3104,1.3054,1.3022,1.305,1.3049,1.3112,1.312,1.3141,1.3223,1.3227,1.3173,1.3176,1.3178,1.318,0,0,0,0,0,0,0,1.2857,1.287,1.2988,1.2966,1.2969,1.2973,1.2983,1.3038,1.3075,1.3025,1.3026,1.3036,1.3113,1.3136,1.3143,1.3229,1.3173,1.3177,1.3181,1.3183,1.337,1.3371,0,0,0,0,0,0,1.2848,1.2865,1.2985,1.2991,1.2912,1.2977,1.2988,1.3016,1.3074,1.3081,1.3038,1.3036,1.3127,1.3137,1.3147,1.3225,1.3178,1.3183,1.3186,1.3368,1.337,1.3372,0,0,0,0,0,0,1.2844,1.2859,1.2981,1.2928,1.2944,1.2982,1.3013,1.3018,1.3041,1.3083,1.309,1.3053,1.3126,1.3139,1.3201,1.3229,1.3186,1.319,1.3366,1.3369,1.3371,1.3381,0,0,0,0,0,0,1.284,1.2857,1.288,1.2928,1.2947,1.3032,1.3015,1.3021,1.3049,1.3049,1.31,1.3107,1.3126,1.3193,1.3206,1.3235,1.3195,1.3363,1.3367,1.337,1.3379,1.3384,1.3389,0,0,0,0,0,1.2834,1.288,1.2881,1.2896,1.2976,1.3034,1.3045,1.3065,1.3051,1.3076,1.3103,1.3105,1.3223,1.3199,1.3214,1.3245,1.3362,1.3366,1.337,1.3377,1.3383,1.3389,0,0,0,0,0,0,1.2835,1.2886,1.2888,1.2951,1.2988,1.3035,1.3066,1.307,1.3113,1.3111,1.3135,1.3147,1.3208,1.3233,1.3205,1.331,1.3291,1.3299,1.3291,1.3298,1.3303,1.3296,1.3199,0,0,0,0,0,1.2842,1.2883,1.2927,1.2978,1.2996,1.3028,1.3054,1.3066,1.3106,1.3122,1.3154,1.3194,1.3241,1.327,1.3315,1.3382,1.3395,1.3411,1.3416,1.342,1.3426,1.3466,1.3474,1.3385,1.3385,1.3385,0,0,1.2857,1.2891,1.2916,1.2979,1.3009,1.3053,1.3041,1.3088,1.3122,1.313,1.319,1.3215,1.3262,1.3327,1.3357,1.3349,1.3454,1.3425,1.3428,1.3432,1.3471,1.348,1.3487,1.3388,1.3387,1.3387,0,0,1.2909,1.2937,1.2984,1.3014,1.306,1.3081,1.3092,1.3139,1.3156,1.3217,1.3224,1.3266,1.3344,1.3377,1.3405,1.3471,1.3475,1.3485,1.3511,1.3549,1.3556,1.3563,1.3588,1.3597,1.349,1.3491,1.3491,0,1.2923,1.2989,1.3008,1.3055,1.3083,1.3092,1.3141,1.317,1.3228,1.3248,1.3238,1.3338,1.337,1.3444,1.346,1.3481,1.3497,1.3479,1.3553,1.356,1.3566,1.3591,1.36,1.3492,1.3491,1.3491,1.3491,0,1.3005,1.305,1.3083,1.3138,1.317,1.3218,1.3246,1.3277,1.3287,1.3309,1.3373,1.3411,1.3465,1.3483,1.3493,1.356,1.3553,1.3548,1.353,1.3576,1.3599,1.3609,1.3493,1.3493,1.3492,1.3492,0,0,1.3059,1.3125,1.3137,1.3163,1.3214,1.3251,1.33,1.3351,1.3378,1.3418,1.3462,1.3528,1.3524,1.3555,1.357,1.3603,1.3656,1.3594,1.3596,1.3606,1.3734,1.3738,1.3749,1.3658,1.366,1.3662,1.3731,0,1.3117,1.3203,1.3223,1.3298,1.3341,1.3351,1.3394,1.3431,1.3454,1.3496,1.3522,1.357,1.356,1.3579,1.3613,1.3642,1.3682,1.3637,1.3701,1.3703,1.369,1.3761,1.3765,1.3828,1.374,1.3741,1.3742,0,1.3197,1.3238,1.3317,1.3365,1.3384,1.3422,1.3472,1.3511,1.3555,1.3569,1.3604,1.3616,1.367,1.3649,1.3724,1.3694,1.3721,1.374,1.3743,1.3751,1.3726,1.3772,1.3849,1.3859,1.3757,1.3756,1.3755,0,1.323,1.3306,1.3364,1.3386,1.3442,1.3469,1.3494,1.3536,1.3566,1.3611,1.3631,1.3681,1.3709,1.3749,1.3774,1.3756,1.3849,1.3829,1.3864,1.3864,1.3884,1.3883,1.3968,1.39,1.3899,1.3899,1.3899,0,1.3294,1.3343,1.338,1.3415,1.3471,1.3494,1.3548,1.3574,1.3611,1.3654,1.3665,1.3705,1.3735,1.378,1.3801,1.3862,1.3874,1.3889,1.3894,1.3889,1.3887,1.3908,1.3905,1.3902,1.3901,1.3901,1.39,0,1.3341,1.3368,1.3432,1.348,1.3493,1.3532,1.3575,1.3611,1.3634,1.3688,1.3702,1.3739,1.3793,1.3822,1.3889,1.3903,1.3972,1.3974,1.3957,1.3959,1.3993,1.399,1.4096,1.4112,1.4031,1.4032,1.4033,0,1.3381,1.3418,1.3471,1.3499,1.3525,1.3571,1.3602,1.3626,1.3659,1.3712,1.3743,1.3796,1.3841,1.3926,1.3961,1.4013,1.4017,1.4051,1.4025,1.4019,1.402,1.4018,1.4023,1.4055,1.4056,1.4057,1.4057,0,1.3449,1.3461,1.3504,1.3553,1.359,1.363,1.3669,1.3693,1.3724,1.376,1.3815,1.3849,1.3918,1.3972,1.4027,1.4055,1.4063,1.4065,1.4076,1.4072,1.4061,1.4069,1.397,1.4062,1.4062,1.4062,1.4061,1.4061,1.3495,1.3529,1.3572,1.3621,1.3653,1.3691,1.3727,1.3756,1.3801,1.3858,1.387,1.3928,1.3973,1.4048,1.4077,1.4124,1.4118,1.4134,1.4138,1.4142,1.4145,1.4052,1.4134,1.4134,1.4134,1.4134,1.4134,0,1.3565,1.3593,1.3638,1.3693,1.3732,1.3734,1.3779,1.3812,1.3862,1.3903,1.3946,1.401,1.4063,1.4102,1.4157,1.4187,1.4192,1.4201,1.42,1.4207,1.4146,1.4132,1.4196,1.4196,1.4196,1.4196,1.4196,1.4196,1.3606,1.3665,1.3682,1.3759,1.3787,1.3843,1.3868,1.3904,1.3937,1.4007,1.4051,1.4075,1.4116,1.4174,1.4224,1.4234,1.4255,1.4264,1.4275,1.4217,1.4211,1.4204,1.4191,1.4267,1.4268,1.4332,1.4332,1.4333]},{"header":{"parameterUnit":"m.s-1","parameterCategory":1,"la1":30.2991,"la2":30.254,"lo1":-89.0895,"lo2":-89.0444,"dy":0.0017,"dx":0.0017,"nx":28,"ny":28,"refTime":"2025-12-25T09:00:00:Z","depth":0,"parameterNumber":3,"parameterNumberName":"V-component_of_WINDS"},"data":[0,0,0,0,0,0,0,0,0,0,0,0,0,0,0,0,0,0,0,0,0,0,0,0,0,0,0,0,0,0,0,0,0,0,0,0,0,0,0,0,0,0,0,0,0,0,0,0,0,0,0,0,0,0,0,0,0,0,1.4048,1.4048,0,1.4045,1.4044,1.4044,1.4025,1.4024,1.4024,1.4023,1.4018,1.4019,1.4019,0,0,0,0,0,0,0,0,0,0,0,0,0,1.4036,1.4036,1.4048,1.4048,1.4048,1.4045,1.4044,1.4044,1.4025,1.4024,1.4024,1.4023,1.4018,1.4019,1.4019,0,0,0,0,0,0,0,0,0,0,0,0,0,1.4038,1.4036,1.4048,1.4037,1.4036,1.4045,1.4044,1.4044,1.4025,1.4024,1.4023,1.4023,1.4018,1.4019,1.4019,1.4036,0,0,1.4021,1.4021,0,0,0,0,0,0,0,0,1.4037,1.4038,1.4039,1.4038,1.4037,1.4034,1.4039,1.4042,1.4025,1.4029,1.4023,1.4022,1.4024,1.4024,1.4025,1.4036,1.4036,1.4021,1.4021,1.4021,1.4021,0,0,0,0,0,0,0,1.4037,1.4038,1.4046,1.4039,1.4038,1.4033,1.4032,1.4039,1.4031,1.4029,1.4027,1.4027,1.4024,1.4025,1.4025,1.4036,1.4021,1.4021,1.4021,1.4022,1.4062,1.4063,0,0,0,0,0,0,1.4039,1.4038,1.4046,1.4046,1.4036,1.4034,1.4033,1.4036,1.4031,1.4029,1.4028,1.4026,1.4024,1.4024,1.4025,1.4045,1.4021,1.4022,1.4022,1.4061,1.4062,1.4063,0,0,0,0,0,0,1.4039,1.404,1.4047,1.4042,1.4042,1.4035,1.4038,1.4036,1.4037,1.403,1.4028,1.4031,1.4024,1.4024,1.4034,1.4045,1.4022,1.4022,1.4061,1.4062,1.4063,1.4086,0,0,0,0,0,0,1.4038,1.404,1.4046,1.4042,1.4043,1.4056,1.4039,1.4037,1.4038,1.4036,1.4032,1.4031,1.4023,1.4033,1.4034,1.4045,1.4023,1.4059,1.4061,1.4062,1.4085,1.4088,1.4091,0,0,0,0,0,1.4038,1.4052,1.4047,1.4048,1.4051,1.4057,1.4057,1.4049,1.4039,1.4046,1.4041,1.4031,1.4043,1.4035,1.4036,1.4047,1.4059,1.4061,1.4062,1.4083,1.4088,1.4091,0,0,0,0,0,0,1.4057,1.4052,1.4045,1.4059,1.4059,1.4054,1.4061,1.4053,1.4055,1.4053,1.4042,1.4041,1.4053,1.4051,1.4041,1.4064,1.4049,1.4051,1.4065,1.4069,1.4072,1.4073,1.4023,0,0,0,0,0,1.4063,1.4069,1.4064,1.4076,1.4076,1.4069,1.4071,1.4065,1.4064,1.4064,1.406,1.4059,1.4063,1.4066,1.4069,1.4084,1.4083,1.4092,1.4096,1.4098,1.41,1.411,1.4114,1.4069,1.4069,1.4069,0,0,1.4075,1.4073,1.4077,1.408,1.4079,1.4086,1.4069,1.4076,1.4081,1.4065,1.4074,1.4072,1.407,1.4083,1.4089,1.4082,1.4113,1.4101,1.4103,1.4104,1.4112,1.4116,1.412,1.407,1.407,1.407,0,0,1.41,1.4099,1.411,1.411,1.4109,1.4104,1.4107,1.4104,1.4102,1.4111,1.41,1.4105,1.4112,1.4111,1.4112,1.4139,1.413,1.414,1.4158,1.4167,1.4171,1.4174,1.4184,1.4188,1.4142,1.4142,1.4142,0,1.4115,1.4125,1.4116,1.4125,1.4127,1.4113,1.4125,1.4125,1.4125,1.4126,1.4118,1.4127,1.4125,1.4139,1.4146,1.4146,1.4149,1.4141,1.4171,1.4174,1.4177,1.4186,1.419,1.4144,1.4144,1.4143,1.4143,0,1.4143,1.415,1.4159,1.4161,1.4164,1.4173,1.4167,1.417,1.4164,1.416,1.4171,1.4168,1.4171,1.4174,1.4167,1.4187,1.4183,1.4173,1.4158,1.4182,1.4191,1.4195,1.4146,1.4145,1.4145,1.4144,0,0,1.418,1.4178,1.4181,1.4183,1.4182,1.4187,1.4196,1.42,1.4204,1.4205,1.4213,1.4219,1.4211,1.4212,1.4205,1.4213,1.4236,1.4202,1.4202,1.4209,1.4258,1.4266,1.4271,1.423,1.423,1.4231,1.4259,0,1.4205,1.4221,1.4215,1.4232,1.4239,1.4227,1.4235,1.4235,1.4232,1.4238,1.4234,1.4239,1.4227,1.4228,1.4235,1.4232,1.4246,1.4229,1.4237,1.4238,1.4238,1.4275,1.4283,1.431,1.4262,1.4263,1.4263,0,1.4236,1.4239,1.4258,1.4257,1.4259,1.4267,1.4271,1.4276,1.4276,1.4273,1.4276,1.4267,1.4277,1.4263,1.4276,1.4265,1.4268,1.4266,1.4267,1.4268,1.4252,1.4278,1.4318,1.4322,1.4269,1.4268,1.4268,0,1.4261,1.4271,1.4283,1.4284,1.4284,1.429,1.4289,1.4289,1.4292,1.4295,1.4297,1.4301,1.4303,1.4307,1.43,1.429,1.4314,1.4299,1.4312,1.4313,1.4318,1.4318,1.436,1.4319,1.4319,1.4319,1.4319,0,1.429,1.4302,1.4295,1.4303,1.4316,1.4308,1.4321,1.432,1.432,1.4327,1.4317,1.4324,1.4314,1.432,1.4315,1.4327,1.4328,1.4326,1.4325,1.4328,1.4328,1.433,1.4328,1.432,1.432,1.432,1.4319,0,1.4321,1.4317,1.433,1.4329,1.4329,1.4339,1.4337,1.4344,1.4341,1.4351,1.4352,1.4347,1.4354,1.4348,1.4354,1.435,1.4367,1.4363,1.4367,1.4366,1.438,1.4379,1.4425,1.4431,1.4386,1.4386,1.4387,0,1.434,1.4349,1.4349,1.4354,1.4355,1.4362,1.4366,1.4359,1.4363,1.4365,1.4372,1.4379,1.4383,1.4395,1.4391,1.4396,1.4392,1.4408,1.4393,1.4396,1.4393,1.4393,1.4394,1.4411,1.4411,1.4412,1.4412,0,1.4374,1.4372,1.4378,1.4384,1.4389,1.4393,1.4396,1.44,1.4393,1.4399,1.4406,1.441,1.4417,1.4423,1.4428,1.4427,1.4419,1.4417,1.4421,1.4424,1.4426,1.4426,1.4376,1.4416,1.4416,1.4415,1.4415,1.4415,1.44,1.4408,1.441,1.4418,1.442,1.4423,1.443,1.4429,1.4435,1.4441,1.4436,1.4446,1.4447,1.4452,1.4453,1.446,1.4453,1.4458,1.4459,1.4461,1.4463,1.4425,1.446,1.446,1.446,1.446,1.446,0,1.4434,1.4435,1.4442,1.4448,1.4454,1.4447,1.445,1.4456,1.4464,1.4467,1.4472,1.4481,1.4488,1.4485,1.4491,1.4497,1.4494,1.4499,1.4499,1.4499,1.4468,1.4465,1.4502,1.4502,1.4502,1.4502,1.4502,1.4502,1.4453,1.4467,1.4465,1.448,1.4481,1.4491,1.4493,1.4497,1.4499,1.451,1.4516,1.4515,1.4515,1.4521,1.4527,1.4527,1.4529,1.4536,1.4534,1.4505,1.4501,1.4497,1.4494,1.4537,1.4537,1.4565,1.4565,1.4565]}]]